Flag for Qatar

Past Weather in 25°17'55.8"N, 51°33'16.8"E, Qatar — Yesterday and Last 2 Weeks

Currently: 93 °F. Clear. (Weather station: Doha International Airport, Qatar). See more current weather

Past Weather in 25°17'55.8"N, 51°33'16.8"E — Graph

°F

25°17'55.8"N, 51°33'16.8"E Temperature Yesterday

Maximum temperature yesterday: 106 °F (at 1:00 pm)
Minimum temperature yesterday: 90 °F (at 12:00 am)
Average temperature yesterday: 98 °F

High & Low Weather Summary for the Past Weeks

 TemperatureHumidityPressure
High108 °F (May 21, 11:30 am)84% (May 13, 8:00 pm)29.86 "Hg (May 13, 8:00 pm)
Low75 °F (May 12, 4:00 am)8% (May 12, 11:30 am)29.56 "Hg (May 22, 5:00 pm)
Average92 °F38%29.71 "Hg
* Reported May 10 12:00 am — May 25 12:30 am, 25°17'55.8"N, 51°33'16.8"E. Weather by CustomWeather, © 2024

Note: Actual official high and low records may vary slightly from our data, if they occured in-between our weather recording intervals... More about our weather records

25°17'55.8"N, 51°33'16.8"E Weather History for the Previous 24 Hours

Scroll right to see more
 ConditionsComfort  
Time TempWeatherWind HumidityBarometerVisibility
12:30 am
Sat, May 25
97 °FClear.8 mph16%29.62 "Hg10 mi
12:00 am97 °FClear.7 mph16%29.62 "Hg10 mi
11:30 pm
Fri, May 24
97 °FPassing clouds.7 mph16%29.62 "HgN/A
11:00 pm97 °FPassing clouds.7 mph17%29.65 "HgN/A
10:30 pm97 °FPassing clouds.9 mph16%29.65 "HgN/A
10:00 pm97 °FClear.10 mph17%29.65 "Hg10 mi
9:30 pm97 °FClear.10 mph17%29.65 "Hg10 mi
9:00 pm97 °FClear.12 mph17%29.65 "Hg10 mi
8:30 pm97 °FClear.13 mph17%29.65 "Hg10 mi
8:00 pm97 °FClear.12 mph17%29.65 "Hg10 mi
7:30 pm99 °FClear.13 mph16%29.65 "Hg10 mi
7:00 pm99 °FClear.16 mph19%29.62 "Hg10 mi
6:30 pm99 °FClear.18 mph19%29.62 "Hg10 mi
6:00 pm100 °FSunny.18 mph17%29.62 "Hg10 mi
5:30 pm102 °FSunny.20 mph18%29.62 "Hg10 mi
5:00 pm102 °FSunny.20 mph18%29.62 "Hg10 mi
4:30 pm104 °FSunny.21 mph17%29.62 "Hg10 mi
4:00 pm106 °FSunny.22 mph15%29.62 "Hg10 mi
3:30 pm106 °FSunny.20 mph15%29.62 "Hg10 mi
3:00 pm106 °FSunny.22 mph14%29.62 "Hg10 mi
2:00 pm104 °FSunny.18 mph21%29.62 "Hg10 mi
1:30 pm106 °FSunny.16 mph23%29.62 "Hg10 mi
1:00 pm106 °FSunny.17 mph22%29.65 "Hg10 mi
12:30 pm104 °FSunny.18 mph19%29.65 "Hg10 mi
12:00 pm104 °FSunny.20 mph19%29.65 "Hg10 mi
11:30 am104 °FSunny.17 mph16%29.65 "Hg10 mi
11:00 am104 °FSunny.18 mph14%29.68 "Hg10 mi
10:30 am104 °FSunny.14 mph16%29.68 "Hg10 mi
10:00 am102 °FSunny.16 mph16%29.68 "Hg10 mi
9:30 am100 °FSunny.16 mph18%29.68 "Hg10 mi
9:00 am100 °FSunny.17 mph20%29.65 "Hg10 mi
8:30 am100 °FSunny.17 mph17%29.65 "Hg10 mi
8:00 am99 °FSunny.15 mph18%29.65 "Hg10 mi
7:30 am97 °FSunny.12 mph19%29.65 "Hg10 mi
7:00 am97 °FSunny.12 mph18%29.65 "Hg10 mi
6:30 am95 °FSunny.10 mph20%29.62 "Hg10 mi
6:00 am93 °FSunny.9 mph24%29.62 "Hg10 mi
5:30 am90 °FSunny.9 mph27%29.62 "Hg10 mi
5:00 am91 °FSunny.10 mph24%29.62 "Hg10 mi
4:30 am91 °FClear.10 mph26%29.62 "Hg10 mi
4:00 am91 °FClear.8 mph26%29.62 "Hg10 mi
3:30 am91 °FClear.9 mph26%29.62 "Hg10 mi
3:00 am93 °FClear.9 mph24%29.62 "Hg10 mi
2:30 am91 °FClear.5 mph23%29.62 "Hg10 mi
2:00 am91 °FClear.7 mph24%29.62 "Hg10 mi
Weather by CustomWeather, © 2024

See weather overview